Showing default

HERMES-5, 63834

Orbit data source: Space-Track

HERMES-5, 63834 is a payload satellite owned by ASI (IT) in SSO that was launched on Sat, 15 Mar 2025 UTC via an FALCON 9 launch vehicle from the Air Force Western Test Range (AFWTR). Payload-class satellites include a variety of spacecraft equipped with specific instruments for various scientific and technological missions. These include communications satellites like Starlink; space stations such as the ISS; scientific satellites like the Hubble; Earth observation satellites from companies like Planet Labs, Umbra, and HawkEye 360; GPS; miniature CubeSats for education and research; and military/defense satellites.

Loading next visibility...
Identifier
63834, 2025-052BQ
Orbit
SSO
Country
Flag of ITIT
Related business
Manufacturer
MILANP/INAFI
Mission
Operational Civil Astronomy
Bus & Motor
CUBESAT 3U, Unknown motor
Mass
5 kg wet, 5 kg dry
Launch date (UTC)
2025-03-15 (1 year ago)
Launch vehicle
FALCON 9
Launch site
Air Force Western Test Range (AFWTR)
Object type
Payload
Rocket body
Debris
Shape & HBR
Box, 0.2 m
Radar Cross Section
0.035 m², Small (<0.1 m²)

Expand to show TLE details & history
Last TLE update: 10 hours ago

TLE from 10 hours ago
0 HERMES-5
1 63834U 25052BQ  26129.68400030  .00007476  00000-0  27867-3 0  9996
2 63834  97.4011  24.3883 0002542 290.5432  69.5534 15.27727766 64073
Epoch: 2026-05-09T16:24Z
TLE epoch observation values (Epoch: 2026-05-09T16:24:57.625Z)
Latitude
-0.00009°
Longitude
-89.3497°
Altitude
485.099 km
Speed
7.623 km/s
True Right ascension
01h 37m 33s
True Declination
0° 00' 00"
Sunlit
Object was in daylight at epoch
Visualization orbit readout
Latitude
Unknown
Longitude
Unknown
Altitude
Unknown
Speed
Unknown
Apparent Right ascension
Unknown
Apparent Declination
Unknown
Sunlit
N/A
Visualization observer readout
Local Sidereal Time
10:29:04
Azimuth
Unknown
Elevation
Unknown
Doppler factor
Unknown
Orbital elements
Apogee altitude
481.305 km
Perigee altitude
477.819 km
Semi-major axis
6,857.699 km
Eccentricity
0.00025
Inclination
97.4011°
RAAN
24.3883°
Arg. of periapsis
290.5432°
True anomaly
69.5807°
Mean anomaly
69.5534°
Eccentric anomaly
69.56705°
Mean motion
3.82187 °/min
Orbital period
94.19 mins
BSTAR
0.00027867
Loading maneuver chart data...
Computing Atmospheric mass density...
Loading historical data...
Loading historical data...
Loading historical data...
Loading historical data...
Loading historical data...
Loading historical data...
Loading historical data...

Documentation

Showing up to 5 results
|